Vertical_Velocity
-2 -3 1 -1 -1 -2 -1 -1 -0 0 1 1 -1 -1 -1 -2 -0 -1 -1 0 -1 0 0 0 -1 0 -1 1 2 1 -0 1
-4 -2 -1 -3 -2 2 -1 0 0 0 1 1 0 -0 -0 1 1 1 0 -0 -0 -1 1 1 1 1 1 2 0 -0 -0 -0
-2 -3 -1 -0 -1 0 -0 -1 -2 -2 -2 -1 -1 -1 -0 -1 -0 -1 0 -1 1 -1 -1 0 1 1 0 0 1 1 0 -1
2 -1 -1 -1 -2 -0 -1 -1 -1 -1 -0 -1 -1 -2 -2 -2 -2 -1 -2 -1 -1 -0 1 -0 1 1 1 -0 1 -0 2 0
-1 -1 -2 -3 -2 -2 -1 -1 -1 -0 -1 -1 -1 -1 -1 -1 -1 -1 -2 -1 -2 -3 -1 -1 0 0 1 2 1 1 1 -5
-1 -0 1 -1 -0 -0 0 0 -0 -1 -1 0 0 -0 -1 0 0 0 -0 -0 -1 -2 -1 -1 -1 -1 0 0 -0 -2 1 -5
-2 -1 -1 -0 0 -0 0 1 1 2 1 1 -0 0 0 -1 -1 -1 -1 -1 -0 0 -0 -0 -0 -0 -1 -1 0 1 1 -2
-1 -1 -1 0 0 0 0 0 1 1 -0 -0 -0 -0 -0 -0 -1 -1 -2 -2 -2 -2 -2 -2 -2 -0 2 1 -1 -2 2 0
-0 -2 -1 -1 -1 0 -0 -1 -1 -0 0 -0 -1 -1 -2 -2 -1 -1 -1 -1 -1 -0 1 1 1 -0 -2 -2 -3 -2 -3 -0
1 1 -1 -1 -1 -1 -1 -1 -1 -1 -1 -1 -1 -1 -1 -2 -1 -1 -1 -0 -1 0 -0 -2 -1 -0 -3 -1 -1 -1 -1 -1
1 1 0 -0 -0 -1 -0 1 0 -0 1 1 -1 -0 -1 -1 -2 -2 -2 -1 -2 -2 -2 -2 -2 -0 -1 -1 -1 -1 2 2
0 1 -0 0 -0 -0 -0 -1 0 0 -0 -1 0 -1 -2 -2 -2 -2 -2 -2 -1 -1 -2 -2 -2 -1 -5 -3 -4 -2 -5 -2
0 1 1 0 1 1 1 -0 -1 1 0 -1 -2 -1 -2 -2 -1 -2 -3 -2 -2 -3 -3 -4 -4 -2 -0 -6 -7 5 -9 -5
-2 -1 -0 0 1 1 1 2 1 2 2 1 -0 -1 -1 -1 -2 -1 -3 -1 -2 -2 -2 -4 -3 -0 -3 -2 -2 -6 7 -1
-0 -0 -0 -1 1 0 0 -0 -1 -1 0 -1 1 -1 -1 -1 -2 -2 -1 -2 -2 -3 -4 -4 -7 -2 -2 0 5 4 -3 4
0 4 2 1 0 -2 -0 1 -0 -2 -0 -1 -1 -0 -1 -1 -2 -3 -4 -6 -5 -3 -4 -4 -5 -3 -5 -6 -2 0 4 -2
3 3 3 2 -0 0 1 1 1 1 1 -1 0 -0 -2 -4 -5 -6 -5 -2 -4 -4 -3 -3 -4 -6 -1 -0 1 -2 9 -1
1 -1 3 4 2 1 1 2 1 0 -1 -2 -3 -2 -3 -3 -3 -2 -3 -2 2 -2 -4 -7 -2 -1 -2 0 1 -0 1 -0
2 -0 -0 1 3 2 -1 -4 -3 -2 -3 -1 -2 -1 1 -0 -1 -1 -2 -3 -2 -5 -3 -5 0 -1 -2 -3 -4 -3 -1 1
1 3 1 1 -1 0 3 1 0 -0 -1 -1 -3 -0 -1 -0 -0 -3 -1 -2 -4 -4 -3 1 -3 -6 -5 -3 -4 -4 -2 -2
Height
5816 5815 5814 5812 5810 5809 5808 5807 5806 5805 5804 5804 5803 5802 5802 5802 5801 5800 5799 5798 5798 5797 5796 5796 5796 5797 5796 5796 5796 5796 5794 5794
5811 5810 5808 5807 5805 5804 5804 5803 5802 5801 5800 5799 5798 5798 5797 5797 5796 5796 5795 5794 5793 5792 5792 5791 5791 5790 5790 5790 5791 5790 5790 5788
5806 5805 5804 5802 5801 5799 5798 5799 5799 5798 5797 5796 5795 5794 5794 5793 5792 5791 5790 5789 5789 5787 5787 5786 5785 5784 5784 5783 5783 5784 5784 5783
5801 5799 5799 5796 5796 5795 5794 5793 5793 5793 5792 5791 5790 5790 5789 5789 5787 5786 5785 5784 5783 5782 5780 5780 5779 5778 5778 5776 5776 5775 5775 5775
5796 5794 5792 5792 5791 5790 5789 5788 5788 5787 5786 5785 5784 5784 5783 5783 5781 5780 5779 5777 5776 5775 5774 5773 5772 5771 5770 5770 5768 5768 5766 5765
5791 5789 5787 5786 5785 5784 5783 5782 5781 5781 5780 5779 5778 5777 5776 5775 5773 5771 5770 5769 5767 5766 5765 5765 5764 5763 5762 5761 5760 5759 5758 5757
5785 5784 5782 5780 5779 5778 5777 5775 5774 5774 5773 5772 5770 5769 5767 5766 5764 5763 5761 5760 5758 5757 5756 5755 5754 5753 5752 5751 5751 5749 5749 5747
5777 5776 5775 5774 5773 5772 5771 5770 5768 5767 5766 5764 5763 5761 5759 5757 5755 5753 5752 5750 5748 5747 5745 5744 5743 5742 5741 5741 5740 5739 5738 5737
5770 5769 5769 5767 5767 5765 5764 5762 5760 5759 5757 5755 5754 5752 5750 5748 5746 5744 5742 5740 5738 5737 5735 5734 5732 5730 5730 5729 5728 5727 5726 5725
5761 5760 5759 5758 5758 5756 5754 5753 5751 5750 5748 5747 5745 5744 5742 5739 5736 5733 5731 5729 5727 5726 5724 5722 5721 5719 5717 5716 5715 5714 5713 5713
5752 5751 5749 5748 5747 5746 5745 5743 5742 5740 5739 5737 5735 5732 5730 5728 5725 5722 5720 5718 5716 5714 5712 5710 5707 5706 5704 5703 5701 5700 5699 5698
5742 5741 5739 5738 5736 5735 5734 5733 5732 5731 5729 5727 5724 5722 5719 5716 5713 5711 5708 5706 5704 5702 5699 5697 5695 5692 5690 5688 5687 5685 5683 5682
5731 5731 5729 5728 5726 5725 5724 5723 5721 5720 5717 5715 5713 5710 5707 5704 5702 5699 5697 5694 5691 5689 5686 5683 5680 5677 5674 5671 5669 5669 5666 5663
5720 5719 5718 5717 5716 5714 5713 5711 5709 5707 5705 5703 5700 5698 5694 5692 5689 5686 5684 5682 5679 5675 5672 5668 5665 5662 5659 5655 5650 5647 5649 5645
5710 5708 5707 5706 5705 5703 5701 5699 5697 5695 5693 5691 5688 5686 5683 5681 5678 5676 5673 5669 5666 5663 5659 5655 5651 5647 5644 5640 5636 5630 5627 5627
5699 5698 5696 5694 5693 5691 5688 5687 5686 5684 5682 5680 5677 5675 5672 5670 5667 5664 5661 5658 5654 5650 5645 5641 5637 5634 5630 5626 5622 5618 5615 5609
5688 5686 5684 5683 5681 5680 5678 5676 5674 5672 5670 5668 5666 5664 5662 5659 5656 5653 5649 5645 5641 5637 5634 5630 5627 5624 5619 5614 5609 5605 5602 5599
5676 5674 5673 5671 5669 5667 5666 5664 5663 5662 5660 5658 5656 5653 5651 5648 5645 5641 5637 5634 5630 5628 5625 5622 5617 5611 5606 5601 5597 5592 5588 5585
5666 5664 5662 5659 5657 5655 5654 5653 5652 5651 5649 5647 5645 5643 5640 5636 5634 5631 5628 5625 5623 5620 5617 5613 5608 5602 5596 5591 5585 5580 5576 5573
5655 5652 5651 5649 5647 5646 5645 5644 5642 5641 5639 5637 5635 5632 5630 5627 5625 5623 5621 5618 5616 5612 5609 5605 5600 5594 5589 5583 5579 5574 5569 5565